BREEZE-M DEB, 41323

Orbit data source: Space-Track

BREEZE-M DEB, 41323 is space debris in HEO originally from a launch on Thu, 17 May 2012 UTC launched from the Tyuratam Missile And Space Complex (TTMTR). Debris objects in space refer to the collection of defunct objects orbiting the Earth. Examples of debris include non-operational satellites, rocket bodies, and fragments generated from explosions, collisions, or faulty payload assembly.

Loading next visibility...
Identifier
41323, 2012-026K
Orbit
HEO
Country
Flag of CISCIS
Related business
Manufacturer
Khrunichev
Mission
Spacecraft
Bus & Motor
Unknown
Mass
Unknown
Launch date (UTC)
2012-05-17 (14 years ago)
Launch vehicle
Unknown
Launch site
Tyuratam Missile And Space Complex (TTMTR)
Object type
Payload
Rocket body
Debris
Shape & HBR
Unknown shape, 1.1 m
Radar Cross Section
RCS unknown

Expand to show TLE details & history
Last TLE update: 12 hours ago

TLE from 12 hours ago
0 BREEZE-M DEB
1 41323U 12026K   25354.47625849 -.00000040  00000-0  00000-0 0  9993
2 41323  10.0299 145.1653 4102896  28.6639 348.6890  1.77767999 64702
Epoch: 2025-12-20T11:25Z
TLE epoch observation values (Epoch: 2025-12-20T11:25:48.733Z)
Latitude
Longitude
-115.71029°
Altitude
11,257.696 km
Speed
5.6 km/s
True Right ascension
09h 40m 10s
True Declination
0° 00' 00"
Sunlit
Object was in daylight at epoch
Visualization orbit readout
Latitude
Unknown
Longitude
Unknown
Altitude
Unknown
Speed
Unknown
Apparent Right ascension
Unknown
Apparent Declination
Unknown
Sunlit
N/A
Visualization observer readout
Local Sidereal Time
22:16:45
Azimuth
Unknown
Elevation
Unknown
Doppler factor
Unknown
Orbital elements
Apogee altitude
34,219.779 km
Perigee altitude
10,597.818 km
Semi-major axis
28,786.936 km
Eccentricity
0.41029
Inclination
10.0299°
RAAN
145.1653°
Arg. of periapsis
28.6639°
True anomaly
331.06853°
Mean anomaly
348.689°
Eccentric anomaly
341.05815°
Mean motion
0.44438 °/min
Orbital period
810.13 mins
BSTAR
0
Loading maneuver chart data...
Computing Atmospheric mass density...
Loading historical data...
Loading historical data...
Loading historical data...
Loading historical data...
Loading historical data...
Loading historical data...
Loading historical data...

Documentation

Showing up to 5 results
|